Location: ????????
(55.3155°N, 39.2900°E)
Time: 10:13:16
(UTC+00:00)

ARIANE 6 FM1 Upper Stage - Pass Details

Date: 14 November 2025
Orbit: 522 x 612 km, 62.0° (Epoch: 07 December)

Event Time Altitude Azimuth Distance (km) Brightness Sun altitude
Rises 16:16:05 0° 277° (W) 2,662 7.5 -24.8°
Reaches altitude 10° 16:18:27 10° 288° (WNW) 1,769 6.2 -25.1°
Enters shadow 16:21:32 31° 337° (NNW) 950 4.0 -25.6°
